IRIDIUM 106 1 41917U 17003A 26176.46771090 .00000003 00000+0 -58894-5 0 9991 2 41917 86.3958 85.0946 0001834 90.6256 269.5150 14.34217435494390 IRIDIUM 103 1 41918U 17003B 26176.45502617 -.00000023 00000+0 -15432-4 0 9991 2 41918 86.3959 84.9998 0002045 76.9110 283.2314 14.34217294494419 IRIDIUM 109 1 41919U 17003C 26176.46136869 -.00000009 00000+0 -10279-4 0 9993 2 41919 86.3959 85.0567 0002121 82.4045 277.7391 14.34217390494384 IRIDIUM 102 1 41920U 17003D 26176.29011628 .00000127 00000+0 38432-4 0 9991 2 41920 86.3961 85.0517 0002276 85.7581 274.3875 14.34217135494440 IRIDIUM 105 1 41921U 17003E 26176.38825463 .00000085 00000+0 23212-4 0 9995 2 41921 86.3957 53.4414 0002517 81.0428 279.1053 14.34217573496313 IRIDIUM 104 1 41922U 17003F 26176.44233262 .00000233 00000+0 76025-4 0 9998 2 41922 86.3961 85.0309 0002331 78.8109 281.3349 14.34220934494458 IRIDIUM 114 1 41923U 17003G 26176.44868379 -.00000005 00000+0 -87463-5 0 9990 2 41923 86.3959 85.0113 0002135 80.0609 280.0828 14.34217353494438 IRIDIUM 108 1 41924U 17003H 26176.40720094 .00000032 00000+0 42581-5 0 9998 2 41924 86.3953 53.3227 0002292 85.8892 274.2566 14.34216518496289 IRIDIUM 112 1 41925U 17003J 26176.22669315 .00000015 00000+0 -16397-5 0 9995 2 41925 86.3956 84.9455 0002231 82.3498 277.7951 14.34217536494424 IRIDIUM 111 1 41926U 17003K 26176.49308237 .00000192 00000+0 61323-4 0 9991 2 41926 86.3962 84.9052 0002251 83.8924 276.2528 14.34219359494448 IRIDIUM 113 1 42803U 17039A 26176.54281412 .00000027 00000+0 24222-5 0 9991 2 42803 86.3977 318.6852 0002289 90.2106 269.9353 14.34217872472381 IRIDIUM 123 1 42804U 17039B 26176.51452432 .00000038 00000+0 63302-5 0 9995 2 42804 86.3975 350.1553 0001984 90.4147 269.7276 14.34217698471148 IRIDIUM 120 1 42805U 17039C 26176.46670319 .00000110 00000+0 32092-4 0 9998 2 42805 86.3966 318.4984 0002156 98.7615 261.3825 14.34218462472360 IRIDIUM 115 1 42806U 17039D 26176.43827908 .00000309 00000+0 85764-4 0 9998 2 42806 86.4502 318.6402 0002021 94.5201 265.6231 14.43280413475457 IRIDIUM 118 1 42807U 17039E 26176.54623772 .00000044 00000+0 87942-5 0 9991 2 42807 86.3973 350.1400 0002217 89.4281 270.7169 14.34217518471141 IRIDIUM 117 1 42808U 17039F 26176.56526472 -.00000023 00000+0 -15172-4 0 9997 2 42808 86.3971 350.0899 0001994 89.5058 270.6366 14.34217367471178 IRIDIUM 126 1 42809U 17039G 26176.52086653 .00000016 00000+0 -13655-5 0 9992 2 42809 86.3971 350.1596 0002050 86.9847 273.1583 14.34217205471142 IRIDIUM 124 1 42810U 17039H 26176.58008200 .00000290 00000+0 80089-4 0 9999 2 42810 86.4487 286.8493 0002235 94.4476 265.6981 14.43282463476326 IRIDIUM 128 1 42811U 17039J 26176.51160512 .00000015 00000+0 -15775-5 0 9995 2 42811 86.3957 21.6691 0001965 91.5815 268.5606 14.34217612471175 IRIDIUM 121 1 42812U 17039K 26176.53989493 .00000161 00000+0 50507-4 0 9997 2 42812 86.3973 350.1792 0002203 92.6263 267.5185 14.34218186471023 IRIDIUM 133 1 42955U 17061A 26176.54331835 .00000067 00000+0 16749-4 0 9997 2 42955 86.3966 21.7739 0002132 88.7511 271.3929 14.34217900455976 IRIDIUM 100 1 42956U 17061B 26176.53697553 .00000125 00000+0 37641-4 0 9998 2 42956 86.3964 21.6950 0002201 88.2848 271.8599 14.34217995455976 IRIDIUM 122 1 42957U 17061C 26176.57503096 -.00000019 00000+0 -13883-4 0 9997 2 42957 86.3960 21.6792 0002028 85.1786 274.9641 14.34217406455981 IRIDIUM 129 1 42958U 17061D 26176.53063335 -.00000003 00000+0 -82362-5 0 9993 2 42958 86.3960 21.7648 0002268 83.5611 276.5843 14.34216853455996 IRIDIUM 119 1 42959U 17061E 26176.56868436 .00000126 00000+0 37882-4 0 9992 2 42959 86.3964 21.7450 0002261 85.4919 274.6535 14.34217179456010 IRIDIUM 107 1 42960U 17061F 26176.51794564 .00000230 00000+0 75217-4 0 9999 2 42960 86.3965 21.7874 0001913 87.2971 272.8443 14.34219188456014 IRIDIUM 132 1 42961U 17061G 26176.52429085 .00000064 00000+0 15874-4 0 9992 2 42961 86.3964 21.7642 0002140 86.3558 273.7883 14.34217583456016 IRIDIUM 136 1 42962U 17061H 26176.55600815 .00000231 00000+0 75531-4 0 9990 2 42962 86.3966 21.7577 0002219 89.5218 270.6232 14.34219168456038 IRIDIUM 139 1 42963U 17061J 26176.56234577 .00000006 00000+0 -50123-5 0 9992 2 42963 86.3960 21.8169 0002010 90.0230 270.1197 14.34217591456045 IRIDIUM 125 1 42964U 17061K 26176.54967816 .00000226 00000+0 73533-4 0 9992 2 42964 86.3968 21.8836 0001931 74.3457 285.7952 14.34217409456052 IRIDIUM 135 1 43070U 17083A 26176.45401824 .00000002 00000+0 -63608-5 0 9993 2 43070 86.3969 318.5588 0002061 92.4836 267.6596 14.34217548445335 IRIDIUM 138 1 43071U 17083B 26176.47938871 .00000057 00000+0 13461-4 0 9993 2 43071 86.3985 318.2447 0002264 87.3823 272.7632 14.34217859445321 IRIDIUM 116 1 43072U 17083C 26176.44767552 .00000137 00000+0 41857-4 0 9996 2 43072 86.3972 318.5471 0002137 101.4209 258.7227 14.34217843445353 IRIDIUM 130 1 43073U 17083D 26176.48572904 .00000009 00000+0 -39944-5 0 9990 2 43073 86.3976 318.8075 0001875 96.6219 263.5191 14.34216462445300 IRIDIUM 151 1 43074U 17083E 26176.46036094 .00000045 00000+0 88594-5 0 9998 2 43074 86.3971 318.5996 0002194 94.0651 266.0796 14.34217720445321 IRIDIUM 134 1 43075U 17083F 26176.42864763 .00000112 00000+0 33008-4 0 9991 2 43075 86.3973 318.6211 0002129 93.9057 266.2382 14.34218043445288 IRIDIUM 137 1 43076U 17083G 26176.44133347 .00000028 00000+0 30969-5 0 9991 2 43076 86.3975 318.7088 0002470 102.2628 257.8844 14.34217755445357 IRIDIUM 141 1 43077U 17083H 26176.43499043 .00000037 00000+0 62022-5 0 9994 2 43077 86.3970 318.5416 0002208 91.2517 268.8932 14.34217761445356 IRIDIUM 153 1 43078U 17083J 26176.38716938 -.00000026 00000+0 -16508-4 0 9991 2 43078 86.3964 287.0425 0002086 90.8317 269.3118 14.34217236446458 IRIDIUM 131 1 43079U 17083K 26176.49207391 -.00000004 00000+0 -84966-5 0 9992 2 43079 86.3973 318.7044 0002127 92.4031 267.7408 14.34217173445290 IRIDIUM 144 1 43249U 18030A 26176.39350636 .00000221 00000+0 71894-4 0 9998 2 43249 86.3962 286.9686 0002225 98.4046 261.7403 14.34220188431313 IRIDIUM 149 1 43250U 18030B 26176.53939193 -.00000006 00000+0 -91573-5 0 9997 2 43250 86.3962 286.8747 0002198 94.2557 265.8890 14.34217359431357 IRIDIUM 157 1 43251U 18030C 26176.55841914 -.00000013 00000+0 -11711-4 0 9996 2 43251 86.3964 286.9202 0002144 94.9894 265.1546 14.34217493431337 IRIDIUM 140 1 43252U 18030D 26176.36814007 .00000153 00000+0 47475-4 0 9998 2 43252 86.3962 287.0120 0002135 95.1886 264.9554 14.34217126431363 IRIDIUM 145 1 43253U 18030E 26176.56476151 .00000042 00000+0 80050-5 0 9999 2 43253 86.3962 286.9021 0002181 103.1283 257.0156 14.34217764431329 IRIDIUM 146 1 43254U 18030F 26176.40619707 .00000072 00000+0 18490-4 0 9990 2 43254 86.3962 286.9805 0002235 98.0207 262.1243 14.34217622431314 IRIDIUM 148 1 43255U 18030G 26176.58378971 .00000012 00000+0 -26600-5 0 9993 2 43255 86.3964 286.9497 0002206 96.1255 264.0192 14.34217663431379 IRIDIUM 142 1 43256U 18030H 26176.55207652 .00000027 00000+0 26145-5 0 9997 2 43256 86.3960 286.8518 0002156 100.1836 259.9603 14.34217707431339 IRIDIUM 150 1 43257U 18030J 26176.38082616 .00000230 00000+0 75034-4 0 9996 2 43257 86.3965 287.0397 0002169 95.6847 264.4596 14.34218192431338 IRIDIUM 143 1 43258U 18030K 26176.36179886 .00000215 00000+0 69795-4 0 9991 2 43258 86.3968 287.1406 0002175 97.7777 262.3666 14.34217703431260 IRIDIUM 161 1 43478U 18047C 26176.48869168 .00000297 00000+0 82401-4 0 9994 2 43478 86.4481 85.0005 0002505 81.5205 278.6279 14.43282845426330 IRIDIUM 152 1 43479U 18047D 26176.26474777 .00000266 00000+0 87970-4 0 9991 2 43479 86.3956 84.9552 0002313 82.7654 277.3805 14.34217765423641 IRIDIUM 147 1 43480U 18047E 26176.48039659 -.00000016 00000+0 -12854-4 0 9997 2 43480 86.3956 84.8703 0002035 87.0024 273.1405 14.34217397423674 IRIDIUM 110 1 43481U 18047F 26176.48673964 -.00000032 00000+0 -18616-4 0 9991 2 43481 86.3957 84.9598 0002363 78.6843 281.4619 14.34217269423664 IRIDIUM 162 1 43482U 18047G 26176.48239229 .00000242 00000+0 65843-4 0 9999 2 43482 86.4482 84.8940 0002212 84.0924 276.0529 14.43278154426329 IRIDIUM 160 1 43569U 18061A 26176.57211228 .00000031 00000+0 38493-5 0 9998 2 43569 86.3957 53.2913 0002268 85.7595 274.3860 14.34217725414574 IRIDIUM 166 1 43570U 18061B 26176.17887069 .00000002 00000+0 -62078-5 0 9993 2 43570 86.3951 53.4059 0002012 87.5959 272.5467 14.34217600414546 IRIDIUM 158 1 43571U 18061C 26176.56576906 .00000107 00000+0 31154-4 0 9997 2 43571 86.3952 53.2541 0002211 83.8546 276.2902 14.34217566414562 IRIDIUM 165 1 43572U 18061D 26176.38183356 .00000158 00000+0 49299-4 0 9996 2 43572 86.3957 53.3777 0002159 89.4822 270.6622 14.34217487414569 IRIDIUM 155 1 43573U 18061E 26176.41354722 .00000034 00000+0 50284-5 0 9998 2 43573 86.3953 53.2330 0002070 84.4497 275.6935 14.34217653414539 IRIDIUM 154 1 43574U 18061F 26176.39451915 .00000094 00000+0 26579-4 0 9993 2 43574 86.3956 53.3750 0002174 89.2206 270.9239 14.34217864414580 IRIDIUM 163 1 43575U 18061G 26176.37549191 .00000086 00000+0 23576-4 0 9991 2 43575 86.3954 53.2980 0002210 83.6680 276.4768 14.34217548414552 IRIDIUM 156 1 43576U 18061H 26176.41989563 .00000221 00000+0 71959-4 0 9997 2 43576 86.3955 53.2867 0002008 85.0817 275.0609 14.34218267414559 IRIDIUM 164 1 43577U 18061J 26176.19155638 .00000100 00000+0 28714-4 0 9998 2 43577 86.3956 53.4227 0002186 89.5683 270.5763 14.34218098414564 IRIDIUM 159 1 43578U 18061K 26176.57845489 -.00000005 00000+0 -87401-5 0 9996 2 43578 86.3949 53.1973 0002118 83.7192 276.4245 14.34217376414588 IRIDIUM 180 1 43922U 19002A 26176.50818215 .00000004 00000+0 -56141-5 0 9990 2 43922 86.3970 350.1183 0002143 89.3636 270.7806 14.34217389390184 IRIDIUM 176 1 43923U 19002B 26176.51893685 .00000521 00000+0 78801-4 0 9995 2 43923 86.6091 350.0561 0002402 88.5026 271.6466 14.72223815400472 IRIDIUM 168 1 43924U 19002C 26176.57160197 .00000174 00000+0 55159-4 0 9992 2 43924 86.3973 350.1691 0002251 90.6438 269.5016 14.34216898390170 IRIDIUM 173 1 43925U 19002D 26176.55892319 .00000055 00000+0 12404-4 0 9993 2 43925 86.3972 350.0631 0002167 88.4637 271.6807 14.34217788390154 IRIDIUM 169 1 43926U 19002E 26176.52937678 .00000382 00000+0 11844-3 0 9998 2 43926 86.4221 21.7049 0001700 81.3047 278.8344 14.38607370391427 IRIDIUM 172 1 43927U 19002F 26176.55257818 .00000016 00000+0 -13226-5 0 9996 2 43927 86.3968 350.0735 0002143 89.9049 270.2392 14.34216950390168 IRIDIUM 175 1 43928U 19002G 26176.38567547 .00000301 00000+0 82852-4 0 9997 2 43928 86.4515 287.0937 0003559 157.0348 203.1013 14.43616966400160 IRIDIUM 171 1 43929U 19002H 26176.53355214 .00000000 00000+0 -69894-5 0 9990 2 43929 86.3978 350.3888 0001958 93.3417 266.8003 14.34217490390153 IRIDIUM 170 1 43930U 19002J 26176.52511402 .00000869 00000+0 13393-3 0 9997 2 43930 86.6091 350.0557 0002546 86.2765 273.8743 14.72225348400485 IRIDIUM 167 1 43931U 19002K 26176.52720915 .00000009 00000+0 -37730-5 0 9999 2 43931 86.3968 350.1067 0001882 96.7991 263.3419 14.34217619390158 IRIDIUM 181 1 56726U 23068S 26176.35665560 .00000269 00000+0 73994-4 0 9995 2 56726 86.4492 53.3753 0002401 87.9673 272.1803 14.43310328163613 IRIDIUM 177 1 56727U 23068T 26176.43477330 .00001032 00000+0 13232-3 0 9998 2 56727 86.1969 324.8737 0002363 88.9701 271.1791 14.80227039167580 IRIDIUM 174 1 56728U 23068U 26176.51278003 .00000882 00000+0 13605-3 0 9990 2 56728 86.6100 350.2090 0002450 80.6711 279.4783 14.72232784167244 IRIDIUM 178 1 56729U 23068V 26176.49146707 .00000965 00000+0 12350-3 0 9991 2 56729 86.6533 21.8888 0002557 84.2279 275.9234 14.80247119167595 IRIDIUM 179 1 56730U 23068W 26176.55371054 .00000409 00000+0 50438-4 0 9998 2 56730 86.6768 30.8677 0002412 89.2329 270.9169 14.80228060167602